Location: Asheville, NC
(35.6000°N, 82.5500°W)
Time: 17:13:05
(UTC-04:00)

Vanguard 2 Rocket - Pass Details

Date: 13 March 2018
Orbit: 553 x 3327 km, 32.9° (Epoch: 17 June)

Event Time Altitude Azimuth Distance (km) Brightness Sun altitude
Rises 20:52:41 0° 269° (W) 2,902 11.2 -16.3°
Reaches altitude 10° 20:54:37 10° 266° (W) 2,130 10.0 -16.7°
Maximum altitude 20:59:23 66° 184° (S) 973 6.9 -17.7°
Enters shadow 21:03:12 28° 110° (ESE) 1,966 8.0 -18.5°
